Regional Weather Roundup
Issued by NWS Grand Forks, ND

Home | Current Version | Previous Version | Graphics & Text | Print | Product List | Glossary On
Versions: 1 2 3 4 5 6 7 8 9 10 11 12 13 14 15 16 17 18 19 20 21 22 23 24 25 26 27 28 29 30 31 32 33 34 35 36 37 38 39 40 41 42 43 44 45 46 47 48 49 50
000
ASUS43 KFGF 281531
RWRFGF
PRAIRIE TO PINES  WEATHER ROUNDUP
NATIONAL WEATHER SERVICE EASTERN NORTH DAKOTA/GRAND FORKS ND
1000 AM CDT SUN AUG 28 2016

 **SATELLITE DATA USED TO AUGMENT SKY COVER AT AUTOMATED STATIONS**
 *****  WEATHER ACROSS EASTERN NORTH DAKOTA  *****

CITY           SKY/WX    TMP DP  RH WIND       PRES   REMARKS
GRAND FORKS    MOSUNNY   69  61  75 S14       29.99S
GRAND FRKS AFB SUNNY     68  62  83 S10       30.00R
GRAND FRKS NWS   N/A     70 N/A N/A SE18        N/A
DEVILS LAKE    SUNNY     71  65  81 SE17      29.95S
FARGO          MOSUNNY   71  62  73 SE13      30.02R
WAHPETON ARPT  SUNNY     72  59  64 SE15      30.03S
$$

 ***** WEATHER ACROSS CENTRAL AND WESTERN NORTH DAKOTA  *****

CITY           SKY/WX    TMP DP  RH WIND       PRES   REMARKS
BISMARCK       SUNNY     70  63  78 SE9       29.91S
MINOT          SUNNY     76  59  55 S7        29.87S
JAMESTOWN      SUNNY     69  64  84 SE12      29.95S
MINOT AFB      SUNNY     74  59  58 SE9       29.86S
GARRISON         N/A     70  60  70 S7        29.91R
WILLISTON      MOSUNNY   70  54  56 S7        29.86R
DICKINSON      SUNNY     70  55  59 SW7       29.90R
HETTINGER      SUNNY     72  58  61 W5        29.94R
$$

 *****  OTHER AIRPORT OBSERVATIONS IN OUR AREA  *****

CITY           SKY/WX    TMP DP  RH WIND       PRES   REMARKS
WALHALLA       FAIR      63  63 100 S14       29.98R
GRAFTON AIRPOR FAIR      66  64  94 S15       30.01S
VALLEY CITY AR FAIR      68  68 100 SE14      30.00S
CANDO          FAIR      72  68  88 S15G22    29.96S
CAVALIER APRT  CLOUDY    63  61  94 S10       29.99R FOG
GWINNER        FAIR      75  70  83 S13       29.99S
SHEYENNE NWR     N/A     71  61  71 SE10      29.95S
ROLLA          FAIR      68  64  88 S12       29.95S
 ***** THE ABOVE OBSERVATIONS ARE NON NWS ARE NOT QUALITY
       CONTROLLED AND MAY MIS-REPORT RAIN FOR SNOW...
$$

  *****  WEATHER ACROSS NORTHERN MINNESOTA  *****

CITY           SKY/WX    TMP DP  RH WIND       PRES   REMARKS
FLAG ISLAND    CLOUDY    63  61  94 S6        30.08R FOG
WARROAD        SUNNY     66  63  88 SE9       30.07S
ROSEAU         SUNNY     70  63  78 SE9       30.05S
HALLOCK        SUNNY     70  64  83 S14       30.00R
THF RVR FALLS  SUNNY     69  63  81 S13       30.04S
BAUDETTE       CLOUDY    61  61 100 SE7       30.09F FOG
WASKISH          N/A     63  63 100 SE6       30.11S
CROOKSTON      SUNNY     72  64  78 S14       30.03R
STEPHEN NDAWN    N/A     70  63  78 S12         N/A
GREENBUSH NDAW   N/A     70  63  78 SE9         N/A
$$
  *****  WEATHER ACROSS CENTRAL AND WEST MINNESOTA  *****

CITY           SKY/WX    TMP DP  RH WIND       PRES   REMARKS
FOSSTON        SUNNY     70  64  83 SE12      30.07S
BEMIDJI        CLOUDY    62  62  99 SE7       30.11S FOG
PARK RAPIDS    CLOUDY    65  60  84 SE10      30.12R
ELBOW LAKE     FAIR      70  63  78 E13       30.06F
WADENA         CLOUDY    68  64  88 E9        30.10S
DETROIT LAKES  MOSUNNY   66  63  88 SE13G18   30.08R
MOORHEAD       SUNNY     72  63  73 S13       30.04R
FERGUS FALLS   SUNNY     70  63  78 SE15      30.06F
MORRIS MN      CLOUDY    68  64  88 SE8       30.06R
STAPLES        CLOUDY    64  63  94 S5        30.12R
$$
  *****  WEATHER ELSEWHERE ACROSS MINNESOTA  *****

CITY           SKY/WX    TMP DP  RH WIND       PRES   REMARKS
DULUTH         CLOUDY    60  60 100 SW3       30.18R FOG
INTRNTL FALLS  CLOUDY    59  58  96 VRB3      30.14R
ELY            CLOUDY    57  57 100 S7        30.17R
CLOQUET        CLOUDY    63  59  88 CALM      30.17S FOG
WHEATON        SUNNY     75  66  73 SE10      30.04F
BRAINERD       CLOUDY    68  63  84 SE8       30.12F
HIBBING        CLOUDY    58  58 100 CALM      30.16S
ALEXANDRIA     CLOUDY    68  63  84 SE9       30.11S
SAINT CLOUD    CLOUDY    62  62 100 VRB6      30.12S FOG
MINNEAPOLIS    PTSUNNY   68  65  90 E7        30.15F FOG
$$

  *****  WEATHER ACROSS SOUTH DAKOTA  *****

CITY           SKY/WX    TMP DP  RH WIND       PRES   REMARKS
SIOUX FALLS    MOSUNNY   75  70  84 SE12      30.07F
BROOKINGS      MOSUNNY   73  68  84 S15G21    30.07S
WATERTOWN      SUNNY     74  67  78 SE12      30.04F
HURON          SUNNY     75  67  76 S17G24    29.98F
SISSETON         N/A     71  63  75 S13G21    30.01F
ABERDEEN       SUNNY     75  66  73 S16       29.96F
MITCHELL       SUNNY     76  68  76 S18       30.01F
PIERRE         SUNNY     75  65  70 SE12      29.92S
MOBRIDGE       SUNNY     75  64  68 S12       29.89S
RAPID CITY     SUNNY     73  51  46 NW5       29.97R
$$

  *****  SOME WEATHER IN NEARBY STATES *****

CITY           SKY/WX    TMP DP  RH WIND       PRES   REMARKS
GLASGOW MT     CLOUDY    69  51  52 SW10G16   29.86R
GREAT FALLS MT MOSUNNY   70  42  36 W9        29.98R
CHEYENNE WY    SUNNY     71  37  28 W9        30.22S
SCOTTSBLUFF NE SUNNY     67  57  70 CALM      30.10R
OMAHA NE       PTSUNNY   78  69  73 S9        30.10S
DES MOINES IA  MOSUNNY   79  72  79 SE7       30.14S
DAVENPORT IA   SUNNY     79  72  79 SE7       30.18F
CHICAGO IL     MOSUNNY   79  70  74 E6        30.20R
EAU CLAIRE WI  CLOUDY    67  64  90 CALM      30.19S
LA CROSSE WI   CLOUDY    69  67  93 E5        30.19S
$$

  *****  SOME NATIONAL WEATHER *****

CITY           SKY/WX    TMP DP  RH WIND       PRES   REMARKS
LA GUARDIA NY  MOSUNNY   85  57  38 VRB6      30.26S
RALEIGH NC     PTSUNNY   80  71  74 N8G17     30.22S
ATLANTA GA     PTSUNNY   81  72  74 NE9       30.19S
NEW ORLEANS LA PTSUNNY   87  77  72 NE14      30.01R HX  99
OKLAHOMA CITY  MOSUNNY   80  71  74 S8        30.12R
ALBUQUERQUE NM CLOUDY    63  50  62 N8        30.29R
SALT LAKE CITY SUNNY     72  44  36 SE15      30.15R
LOS ANGELES CA SUNNY     67  60  78 NW5       30.02R
BOISE ID       SUNNY     65  34  31 E6        30.09R
SEATTLE WA     PTSUNNY   57  50  77 S5        30.08S
$$

*** WEATHER ACROSS MANITOBA...SASKATCHEWAN AND ONTARIO ***
                ***ONTARIO***

CITY           SKY/WX    TMP DP  RH WIND       PRES   REMARKS
GERALDTON      MOSUNNY   63  54  72 NW2       30.15R
THUNDER BAY    MOSUNNY   64  57  77 SE3       30.14S
SIOUX LOOKOUT  PTSUNNY   61  55  82 SW5       30.12S
TORONTO        PTSUNNY   82  66  57 SW7       30.13F
BIG TROUT LK   SUNNY     64  57  77 S6        30.05S
PICKLE LAKE    PTSUNNY   63  55  77 SE5       30.11R
DRYDEN         CLOUDY    59  55  88 SW5       30.12S
KENORA         CLOUDY    59  57  94 SE8       30.10S
$$
                *** MANITOBA***

CITY           SKY/WX    TMP DP  RH WIND       PRES   REMARKS
BRANDON        PTSUNNY   66  61  82 SE9       29.88F
DAUPHIN        SUNNY     70  57  64 SE13      29.81F
ISLAND LAKE    MOSUNNY   64  61  88 SE7       30.01R
PILOT MOUND      N/A     70  63  78 S14         N/A
THE PAS        LGT RAIN  63  57  82 SE14G20   29.76S
THOMPSON       PTSUNNY   64  59  82 E3        29.90F
WINNIPEG       MOSUNNY   66  61  82 S13       29.98S
LYNN LAKE      MOSUNNY   63  55  77 MISG      29.79F
CHURCHILL      MOSUNNY   63  55  77 SE7       30.01R
GILLAM         MOSUNNY   61  57  88 NE6       29.97R
$$
                ***SASKATCHEWAN***

CITY           SKY/WX    TMP DP  RH WIND       PRES   REMARKS
ESTEVAN        PTSUNNY   68  57  68 S7        29.83R
KINDERSLEY     PTSUNNY   52  46  82 NW17G29   29.93R
LLOYDMINSTER   LGT RAIN  50  48  93 W17       29.84R
PRINCE ALBERT  PTSUNNY   63  57  82 W17G28    29.70R
REGINA         PTSUNNY   63  54  72 NW10      29.84R
YORKTON        CLOUDY    59  52  77 S8        29.79R
N. BATTLEFORD  NOT AVBL
LA RONGE       PTSUNNY   61  59  94 E8        29.62F
SASKATOON      PTSUNNY   63  54  72 W16G22    29.82R
SWIFT CURRENT  SUNNY     55  52  88 W15G23    29.92R
$$
NOTE: THESE ARE AUTOMATED STATIONS WITH LIMITED QUALITY CONTROL
      "FAIR" INDICATES FEW OR NO CLOUDS BELOW 12,000 FEET WITH NO
      SIGNIFICANT WEATHER AND/OR OBSTRUCTIONS TO VISIBILITY.
      SKY/WX - SKY CONDITION AND SIGNIFICANT WEATHER.
      TMP - AIR TEMPERATURE.    DP   - DEWPOINT TEMPERATURE.
      RH  - RELATIVE HUMIDITY.  PRES - PRESSURE.
      HX  - HEAT INDEX.         WCI  - WIND CHILL INDEX.
$




USA.gov is the U.S. government's official web portal to all federal, state and local government web resources and services.